• In Österreich
  • Länderverzeichnis
  • Für 7 Tage
  • Wassertemperatur
  • Satellitenkarten
  • Wetterkarte
  • News
  • Widgets
  • user-avatar
    Anmelden

    Stündliche Wetter La-Plata

    Heute, 24 September, Montag

    Zeit Temperatur Niederschläge Wind Luftdruck Luftfeuchtigkeit
    00:00 +13°C° 0 mm 3 m/S 760 mmHg 68%
    01:00 +12°C° 0 mm 3 m/S 761 mmHg 67%
    02:00 +11°C° 0 mm 3 m/S 761 mmHg 70%
    03:00 +11°C° 0 mm 3 m/S 761 mmHg 68%
    04:00 +11°C° 0 mm 3 m/S 761 mmHg 66%
    05:00 +12°C° 0 mm 2 m/S 761 mmHg 64%
    06:00 +13°C° 0 mm 2 m/S 762 mmHg 60%
    07:00 +14°C° 0 mm 2 m/S 762 mmHg 57%
    08:00 +16°C° 0 mm 2 m/S 763 mmHg 54%
    09:00 +18°C° 0 mm 2 m/S 763 mmHg 49%
    10:00 +19°C° 0 mm 3 m/S 763 mmHg 44%
    11:00 +21°C° 0 mm 3 m/S 763 mmHg 39%
    12:00 +23°C° 0 mm 2 m/S 762 mmHg 38%
    13:00 +23°C° 0 mm 2 m/S 762 mmHg 36%
    14:00 +23°C° 0 mm 2 m/S 762 mmHg 35%
    15:00 +21°C° 0 mm 2 m/S 762 mmHg 41%
    16:00 +20°C° 0 mm 3 m/S 761 mmHg 47%
    17:00 +20°C° 0 mm 3 m/S 761 mmHg 53%
    18:00 +18°C° 0 mm 3 m/S 762 mmHg 54%
    19:00 +15°C° 0 mm 4 m/S 762 mmHg 56%
    20:00 +14°C° 0 mm 4 m/S 762 mmHg 58%
    21:00 +14°C° 0 mm 4 m/S 763 mmHg 58%
    22:00 +13°C° 0 mm 4 m/S 763 mmHg 59%
    23:00 +13°C° 0 mm 4 m/S 763 mmHg 60%

    Morgen, 25 September, Dienstag

    Zeit Temperatur Niederschläge Wind Luftdruck Luftfeuchtigkeit
    00:00 +12°C° 0 mm 4 m/S 763 mmHg 64%
    01:00 +12°C° 0 mm 4 m/S 763 mmHg 68%
    02:00 +12°C° 0 mm 4 m/S 763 mmHg 72%
    03:00 +12°C° 0 mm 4 m/S 762 mmHg 74%
    04:00 +11°C° 0 mm 4 m/S 762 mmHg 75%
    05:00 +11°C° 0 mm 4 m/S 762 mmHg 76%
    06:00 +13°C° 0 mm 5 m/S 762 mmHg 71%
    07:00 +14°C° 0 mm 5 m/S 762 mmHg 66%
    08:00 +15°C° 0 mm 6 m/S 763 mmHg 61%
    09:00 +17°C° 0 mm 6 m/S 762 mmHg 57%
    10:00 +19°C° 0 mm 6 m/S 762 mmHg 53%
    11:00 +20°C° 0 mm 6 m/S 762 mmHg 48%
    12:00 +20°C° 0 mm 6 m/S 761 mmHg 49%
    13:00 +20°C° 0 mm 6 m/S 760 mmHg 49%
    14:00 +21°C° 0 mm 6 m/S 760 mmHg 49%
    15:00 +20°C° 0 mm 6 m/S 759 mmHg 55%
    16:00 +19°C° 0 mm 6 m/S 759 mmHg 61%
    17:00 +17°C° 0 mm 5 m/S 759 mmHg 67%
    18:00 +16°C° 0 mm 5 m/S 759 mmHg 71%
    19:00 +15°C° 0 mm 5 m/S 759 mmHg 74%
    20:00 +14°C° 0 mm 5 m/S 760 mmHg 78%
    21:00 +14°C° 0 mm 5 m/S 760 mmHg 80%
    22:00 +14°C° 0 mm 5 m/S 760 mmHg 82%
    23:00 +13°C° 0 mm 4 m/S 760 mmHg 84%

    übermorgen, 26 September, Mittwoch

    Zeit Temperatur Niederschläge Wind Luftdruck Luftfeuchtigkeit
    00:00 +13°C° 0 mm 4 m/S 760 mmHg 86%
    01:00 +13°C° 0 mm 4 m/S 759 mmHg 87%
    02:00 +12°C° 0 mm 4 m/S 759 mmHg 88%
    03:00 +12°C° 0 mm 3 m/S 759 mmHg 89%
    04:00 +12°C° 0 mm 3 m/S 759 mmHg 89%
    05:00 +12°C° 0 mm 3 m/S 759 mmHg 90%
    06:00 +13°C° 0 mm 4 m/S 759 mmHg 87%
    07:00 +14°C° 0 mm 4 m/S 760 mmHg 83%
    08:00 +17°C° 0 mm 4 m/S 760 mmHg 80%
    09:00 +18°C° 0 mm 4 m/S 760 mmHg 77%
    10:00 +19°C° 0 mm 4 m/S 760 mmHg 75%
    11:00 +20°C° 0 mm 5 m/S 760 mmHg 72%
    12:00 +20°C° 0 mm 5 m/S 760 mmHg 72%
    13:00 +20°C° 0 mm 5 m/S 759 mmHg 73%
    14:00 +20°C° 0 mm 5 m/S 759 mmHg 73%
    15:00 +19°C° 0 mm 5 m/S 759 mmHg 75%
    16:00 +17°C° 0 mm 6 m/S 759 mmHg 76%
    17:00 +17°C° 0 mm 6 m/S 759 mmHg 78%
    18:00 +16°C° 0 mm 6 m/S 760 mmHg 81%
    19:00 +15°C° 0 mm 6 m/S 760 mmHg 84%
    20:00 +13°C° 0 mm 6 m/S 761 mmHg 88%
    21:00 +13°C° 0 mm 6 m/S 761 mmHg 88%
    22:00 +13°C° 0 mm 6 m/S 762 mmHg 89%
    23:00 +13°C° 0 mm 6 m/S 762 mmHg 89%

    27 September, Donnerstag

    Zeit Temperatur Niederschläge Wind Luftdruck Luftfeuchtigkeit
    00:00 +13°C° 0 mm 6 m/S 762 mmHg 89%
    01:00 +13°C° 0 mm 6 m/S 762 mmHg 88%
    02:00 +13°C° 0 mm 6 m/S 762 mmHg 87%
    03:00 +13°C° 0 mm 6 m/S 762 mmHg 86%
    04:00 +13°C° 0 mm 6 m/S 762 mmHg 86%
    05:00 +13°C° 0 mm 6 m/S 762 mmHg 85%
    06:00 +13°C° 0 mm 6 m/S 762 mmHg 82%
    07:00 +14°C° 0 mm 6 m/S 762 mmHg 80%
    08:00 +15°C° 0 mm 7 m/S 763 mmHg 78%
    09:00 +16°C° 0 mm 7 m/S 763 mmHg 74%
    10:00 +17°C° 0 mm 7 m/S 763 mmHg 71%
    11:00 +17°C° 0 mm 7 m/S 763 mmHg 68%
    12:00 +18°C° 0 mm 7 m/S 762 mmHg 67%
    13:00 +18°C° 0 mm 7 m/S 762 mmHg 66%
    14:00 +18°C° 0 mm 7 m/S 762 mmHg 66%
    15:00 +17°C° 0 mm 7 m/S 762 mmHg 68%
    16:00 +16°C° 0 mm 7 m/S 762 mmHg 71%
    17:00 +15°C° 0 mm 7 m/S 762 mmHg 74%
    18:00 +14°C° 0 mm 7 m/S 762 mmHg 76%
    19:00 +14°C° 0 mm 7 m/S 763 mmHg 78%
    20:00 +13°C° 0 mm 6 m/S 763 mmHg 80%
    21:00 +13°C° 0 mm 6 m/S 763 mmHg 82%
    22:00 +13°C° 0 mm 6 m/S 764 mmHg 84%
    23:00 +13°C° 0 mm 5 m/S 764 mmHg 86%

    28 September, Freitag

    Zeit Temperatur Niederschläge Wind Luftdruck Luftfeuchtigkeit
    00:00 +13°C° 0 mm 5 m/S 763 mmHg 86%
    01:00 +13°C° 0 mm 5 m/S 763 mmHg 86%
    02:00 +14°C° 0 mm 5 m/S 763 mmHg 86%
    03:00 +14°C° 0 mm 5 m/S 763 mmHg 86%
    04:00 +14°C° 0 mm 6 m/S 763 mmHg 85%
    05:00 +14°C° 0 mm 6 m/S 763 mmHg 85%
    06:00 +15°C° 0 mm 6 m/S 763 mmHg 83%
    07:00 +15°C° 0 mm 6 m/S 763 mmHg 81%
    08:00 +16°C° 0 mm 6 m/S 764 mmHg 80%
    09:00 +17°C° 0 mm 5 m/S 763 mmHg 78%
    10:00 +19°C° 0 mm 5 m/S 763 mmHg 76%
    11:00 +19°C° 0 mm 5 m/S 762 mmHg 74%
    12:00 +20°C° 0 mm 5 m/S 762 mmHg 73%
    13:00 +21°C° 0 mm 5 m/S 761 mmHg 72%
    14:00 +21°C° 0 mm 5 m/S 761 mmHg 71%
    15:00 +21°C° 0 mm 5 m/S 760 mmHg 75%
    16:00 +20°C° 0 mm 5 m/S 760 mmHg 78%
    17:00 +20°C° 0 mm 5 m/S 760 mmHg 82%
    18:00 +19°C° 0 mm 5 m/S 760 mmHg 84%
    19:00 +17°C° 0 mm 5 m/S 760 mmHg 87%
    20:00 +17°C° 0 mm 5 m/S 760 mmHg 90%
    21:00 +17°C° 0 mm 5 m/S 759 mmHg 87%
    22:00 +17°C° 0 mm 6 m/S 759 mmHg 85%
    23:00 +18°C° 0 mm 7 m/S 759 mmHg 82%

    29 September, Samstag

    Zeit Temperatur Niederschläge Wind Luftdruck Luftfeuchtigkeit
    00:00 +17°C° 0 mm 7 m/S 758 mmHg 84%
    01:00 +17°C° 0 mm 6 m/S 758 mmHg 86%
    02:00 +17°C° 0 mm 6 m/S 757 mmHg 88%
    03:00 +17°C° 0 mm 6 m/S 757 mmHg 88%
    04:00 +17°C° 0 mm 5 m/S 757 mmHg 88%
    05:00 +19°C° 0 mm 5 m/S 757 mmHg 88%
    06:00 +19°C° 0 mm 5 m/S 757 mmHg 88%
    07:00 +19°C° 0 mm 6 m/S 757 mmHg 88%
    08:00 +20°C° 0 mm 6 m/S 756 mmHg 88%
    09:00 +20°C° 0 mm 6 m/S 756 mmHg 87%
    10:00 +21°C° 0 mm 5 m/S 755 mmHg 86%
    11:00 +21°C° 0 mm 5 m/S 755 mmHg 85%
    12:00 +22°C° 0.1 mm 5 m/S 755 mmHg 86%
    13:00 +22°C° 0.1 mm 4 m/S 754 mmHg 87%
    14:00 +23°C° 0.1 mm 4 m/S 754 mmHg 87%
    15:00 +23°C° 0.1 mm 4 m/S 754 mmHg 88%
    16:00 +24°C° 0.1 mm 3 m/S 753 mmHg 90%
    17:00 +24°C° 0.1 mm 3 m/S 753 mmHg 91%
    18:00 +23°C° 0.8 mm 2 m/S 754 mmHg 92%
    19:00 +23°C° 0.8 mm 2 m/S 754 mmHg 94%
    20:00 +22°C° 0.8 mm 1 m/S 754 mmHg 96%
    21:00 +22°C° 0.4 mm 1 m/S 754 mmHg 96%
    22:00 +22°C° 0.4 mm 1 m/S 754 mmHg 96%
    23:00 +22°C° 0.4 mm 1 m/S 754 mmHg 96%
    Mehr zeigen